Regional Weather Roundup
Issued by NWS New Orleans/Baton Rouge, LA

Home | Current Version | Previous Version | Graphics & Text | Print | Product List | Glossary On
Versions: 1 2 3 4 5 6 7 8 9 10 11 12 13 14 15 16 17 18 19 20 21 22 23 24 25 26 27 28 29 30 31 32 33 34 35 36 37 38 39 40 41 42 43 44 45 46 47 48 49 50
069
ASUS44 KLIX 012201
RWRLIX
NEW ORLEANS REGIONAL WEATHER ROUNDUP
NATIONAL WEATHER SERVICE NEW ORLEANS LA
400 PM CST SUN MAR 01 2015

NOTE: "FAIR" INDICATES FEW OR NO CLOUDS BELOW 12,000 FEET WITH NO
      SIGNIFICANT WEATHER AND/OR OBSTRUCTIONS TO VISIBILITY.
      SKY/WX - SKY CONDITION AND SIGNIFICANT WEATHER.
      TMP - AIR TEMPERATURE.     DP    - DEWPOINT TEMPERATURE.
      RH  - RELATIVE HUMIDITY.   PRES  - PRESSURE.
      HI  - HEAT INDEX.          WCI   - WIND CHILL INDEX.

*  THESE STATIONS ARE NOT NWS OR FAA STATIONS AND ARE NOT UNDER
   NWS QUALITY CONTROL.

LAZ038-040-048-061>063-065>067-069-012300-
SOUTHEAST LOUISIANA

CITY           SKY/WX    TMP DP  RH WIND       PRES   REMARKS
N.O. AUDUBON     N/A     61  61 100 MISG        N/A
N.O. INTL ARPT CLOUDY    65  59  81 E10       30.24F HAZE
N.O. LAKEFRONT FOG       60  56  86 E10       30.26F VSB 1
SLIDELL        CLOUDY    64  60  87 E5        30.26F
BATON ROUGE    CLOUDY    64  61  90 E10       30.21F
BOOTHVILLE     CLOUDY    71  67  87 E9        30.24F
BELLE CHASSE   CLOUDY    64  58  80 NE8       30.24F FOG
BOGALUSA*        N/A     66  59  79 E3        30.28F
GALLIANO*      CLOUDY    72  66  81 E5        30.24S
NEW ROADS*     NOT AVBL
GONZALES*      NOT AVBL
HAMMOND*       NOT AVBL
HOUMA*         PTSUNNY   75  68  78 SE13      30.22F
PORT FOURCHON* CLEAR     68  66  94 E10       30.26S FOG

$$

MSZ070-080>082-012300-
SOUTHERN MISSISSIPPI

CITY           SKY/WX    TMP DP  RH WIND       PRES   REMARKS
MCCOMB         CLOUDY    63  60  90 SE7       30.26S
GULFPORT       CLOUDY    62  59  90 E8        30.27S
BILOXI         NOT AVBL
PASCAGOULA     CLOUDY    59  57  93 NE5       30.28F FOG
STENNIS ARPT*  CLOUDY    61  55  82 SE7       30.27S

$$

COASTAL OBSERVATIONS
LAKE AND NEARSHORE STATIONS

STATION/POSITION TIME  TEMP    WIND        PRES    WAVE
                       AIR SEA DIR/SP/G            HT/PER
                 (UTC) (F)     (DEG/KT/KT) (MB)    (FT/S)
PASCAGOULA       2100   58      60/ 10/ 15 1024.8
WAVELAND YACHT   2100   59 54   90/  8/ 11 1024.8
GRAND ISLE       2100   67 58  110/  5/ 10 1024.2
SOUTHWEST PASS   2100   71 48  100/ 11/ 12 1023.9
NEW CANAL        2120   60     110/  1/  7 1025.0
SHELL BEACH      2100   57 54   60/  9/ 10 1024.5

OFFSHORE STATIONS

STATION/POSITION TIME  TEMP    WIND        PRES    WAVE
                       AIR SEA DIR/SP/G            HT/PER
                 (UTC) (F)     (DEG/KT/KT) (MB)    (FT/S)
64 S DAUPHIN ISL 2142   70 71  150/ 12/ 14 1024.9    5/ 7

$$




USA.gov is the U.S. government's official web portal to all federal, state and local government web resources and services.